Flag for USA Past Weather in Furnace Creek (Death Valley), California, USA — Yesterday and Last 2 Weeks

Now
36 °F

Partly sunny.


Feels Like: 29 °F
Forecast: 41 / 61 °F
Wind: 9 mph from Northeast

Location: Desert Rock Airport

Current Time: Feb 23, 2018 at 8:37:06 am

Latest Report: Feb 23, 2018 at 7:55 am


Visibility: 10 mi

Pressure: 30.01 "Hg

Humidity: 40%

Dew Point: 14 °F

Location of Furnace Creek (Death Valley)Location

Past Weather in Furnace Creek (Death Valley) — Graph

°F

Furnace Creek (Death Valley) Temperature Yesterday

Maximum temperature yesterday: 50 °F (at 1:55 pm)
Minimum temperature yesterday: 24 °F (at 1:55 am)
Average temperature yesterday: 39 °F

High & Low Weather Summary for the Past Weeks

 TemperatureHumidityPressure
High74 °F (Feb 8, 2:55 pm)77% (Feb 12, 5:55 pm)30.25 "Hg (Feb 12, 5:55 pm)
Low24 °F (Feb 22, 1:55 am)10% (Feb 11, 4:55 pm)29.39 "Hg (Feb 18, 9:55 pm)
Average46 °F31%29.93 "Hg
* Reported Feb 8 6:55 am — Feb 23 6:55 am, Furnace Creek (Death Valley). Weather by CustomWeather, © 2018

Note: Actual official high and low records may vary slightly from our data, if they occured in-between our weather recording intervals... More about our weather records

Advertising

Furnace Creek (Death Valley) Weather History for the Previous 24 Hours

Scroll right to see more
 ConditionsComfort  
Time TempWeatherWind HumidityBarometerVisibility
6:55 am
Fri, Feb 23
32 °FPassing clouds.10 mph47%29.99 "Hg10 mi
5:55 am34 °FPassing clouds.No wind52%29.96 "Hg10 mi
4:55 am33 °FPassing clouds.8 mph45%29.93 "Hg10 mi
3:55 am35 °FOvercast.6 mph36%29.93 "Hg10 mi
2:55 am34 °FClear.5 mph35%29.91 "Hg10 mi
1:55 am35 °FClear.8 mph32%29.92 "Hg10 mi
12:55 am36 °FClear.14 mph34%29.92 "Hg10 mi
11:55 pm
Thu, Feb 22
38 °FClear.16 mph31%29.91 "Hg10 mi
10:55 pm40 °FClear.10 mph29%29.90 "Hg10 mi
9:55 pm41 °FClear.15 mph28%29.91 "Hg10 mi
8:55 pm42 °FPassing clouds.16 mph27%29.90 "Hg10 mi
7:55 pm43 °FPassing clouds.17 mph25%29.89 "Hg10 mi
6:55 pm45 °FPassing clouds.21 mph23%29.88 "Hg10 mi
5:55 pm46 °FPassing clouds.16 mph22%29.86 "Hg10 mi
4:55 pm50 °FPartly sunny.17 mph18%29.84 "Hg10 mi
3:55 pm50 °FPartly sunny.22 mph21%29.86 "Hg10 mi
2:55 pm50 °FPassing clouds.16 mph22%29.88 "Hg10 mi
1:55 pm50 °FSunny.18 mph22%29.92 "Hg10 mi
12:55 pm47 °FSunny.22 mph23%29.95 "Hg10 mi
11:55 am46 °FSunny.17 mph24%29.98 "Hg10 mi
10:55 am46 °FSunny.20 mph24%29.99 "Hg10 mi
9:55 am42 °FSunny.20 mph29%30.01 "Hg10 mi
8:55 am38 °FSunny.No wind27%30.02 "Hg10 mi
Weather by CustomWeather, © 2018

See weather overview